[[{"header":{"parameterUnit":"m.s-1","parameterCategory":1,"la1":30.2991,"la2":30.254,"lo1":-89.0895,"lo2":-89.0444,"dy":0.0017,"dx":0.0017,"nx":28,"ny":28,"refTime":"2024-03-16T03:00:00:Z","depth":0,"parameterNumber":2,"parameterNumberName":"U-component_of_WINDS"},"data":[0,0,0,0,0,0,0,0,0,0,0,0,0,0,0,0,0,0,0,0,0,0,0,0,0,0,0,0,0,0,0,0,0,0,0,0,0,0,0,0,0,0,0,0,0,0,0,0,0,0,0,0,0,0,0,0,0,0,-1.2242,-1.2242,0,-1.2212,-1.2212,-1.2212,-1.2159,-1.2158,-1.2157,-1.2156,-1.2126,-1.2126,-1.2126,0,0,0,0,0,0,0,0,0,0,0,0,0,-1.2255,-1.2255,-1.2242,-1.2242,-1.2242,-1.2213,-1.2212,-1.2212,-1.2159,-1.2158,-1.2157,-1.2156,-1.2126,-1.2126,-1.2126,0,0,0,0,0,0,0,0,0,0,0,0,0,-1.224,-1.2255,-1.2242,-1.2212,-1.2209,-1.2213,-1.2212,-1.2212,-1.2159,-1.2158,-1.2156,-1.2155,-1.2126,-1.2126,-1.2126,-1.2157,0,0,-1.2127,-1.2127,0,0,0,0,0,0,0,0,-1.2241,-1.2239,-1.2217,-1.2214,-1.2211,-1.2188,-1.2205,-1.2193,-1.216,-1.2178,-1.2156,-1.2154,-1.2148,-1.2146,-1.2144,-1.2156,-1.2155,-1.2127,-1.2127,-1.2127,-1.2127,0,0,0,0,0,0,0,-1.2242,-1.224,-1.223,-1.2216,-1.2213,-1.22,-1.2196,-1.2203,-1.2172,-1.2176,-1.2173,-1.217,-1.2146,-1.2144,-1.2143,-1.2154,-1.2127,-1.2127,-1.2127,-1.2127,-1.2192,-1.2193,0,0,0,0,0,0,-1.2247,-1.2242,-1.2231,-1.223,-1.2222,-1.2201,-1.2197,-1.2197,-1.2172,-1.2166,-1.2171,-1.2167,-1.2144,-1.2142,-1.2141,-1.2177,-1.2127,-1.2127,-1.2127,-1.219,-1.2192,-1.2194,0,0,0,0,0,0,-1.2248,-1.2247,-1.2233,-1.2234,-1.2232,-1.2202,-1.2203,-1.2197,-1.2195,-1.2167,-1.2162,-1.2175,-1.2143,-1.2141,-1.2154,-1.2175,-1.2127,-1.2127,-1.2188,-1.2191,-1.2193,-1.2249,0,0,0,0,0,0,-1.2248,-1.2247,-1.2259,-1.2235,-1.2232,-1.2246,-1.2204,-1.2197,-1.2195,-1.219,-1.2169,-1.2164,-1.2142,-1.2154,-1.2154,-1.2175,-1.2128,-1.2186,-1.2189,-1.2192,-1.2245,-1.2253,-1.2259,0,0,0,0,0,-1.2249,-1.2275,-1.2259,-1.2259,-1.2245,-1.2247,-1.2245,-1.2218,-1.2197,-1.2208,-1.2191,-1.2165,-1.2173,-1.2156,-1.2156,-1.2176,-1.2185,-1.2189,-1.2192,-1.2241,-1.2251,-1.2259,0,0,0,0,0,0,-1.2302,-1.2272,-1.2254,-1.2273,-1.2263,-1.2238,-1.2252,-1.2229,-1.2225,-1.222,-1.2187,-1.2183,-1.2201,-1.2189,-1.2171,-1.2206,-1.2175,-1.2179,-1.2212,-1.2221,-1.2228,-1.2231,-1.2128,0,0,0,0,0,-1.2316,-1.232,-1.2293,-1.2313,-1.2309,-1.2281,-1.2281,-1.2261,-1.2249,-1.2245,-1.2228,-1.2218,-1.2218,-1.2219,-1.2218,-1.2243,-1.2238,-1.2257,-1.2264,-1.227,-1.2274,-1.2288,-1.2296,-1.2206,-1.2206,-1.2206,0,0,-1.2345,-1.2329,-1.2333,-1.2323,-1.2313,-1.2318,-1.2278,-1.2285,-1.2288,-1.2246,-1.2257,-1.2245,-1.2231,-1.2251,-1.2258,-1.2242,-1.2298,-1.2275,-1.228,-1.228,-1.2292,-1.2301,-1.2309,-1.2208,-1.2208,-1.2207,0,0,-1.2401,-1.2388,-1.2404,-1.2395,-1.238,-1.2361,-1.2365,-1.2344,-1.2334,-1.2345,-1.2314,-1.2317,-1.2318,-1.231,-1.2306,-1.2359,-1.2336,-1.236,-1.2398,-1.2412,-1.2419,-1.2425,-1.2445,-1.2452,-1.2364,-1.2364,-1.2364,0,-1.2439,-1.2445,-1.2415,-1.2424,-1.2421,-1.2383,-1.2399,-1.2391,-1.2377,-1.2376,-1.2358,-1.2359,-1.2347,-1.2364,-1.2377,-1.2375,-1.2379,-1.2362,-1.242,-1.2426,-1.2431,-1.245,-1.2458,-1.2367,-1.2367,-1.2366,-1.2366,0,-1.2493,-1.2497,-1.2512,-1.2499,-1.2497,-1.251,-1.2483,-1.2485,-1.2465,-1.2449,-1.2461,-1.2446,-1.2441,-1.2443,-1.2424,-1.2459,-1.2449,-1.2426,-1.2394,-1.2444,-1.2461,-1.2468,-1.2371,-1.237,-1.2369,-1.2369,0,0,-1.2581,-1.2552,-1.2558,-1.2552,-1.2533,-1.2536,-1.2547,-1.2542,-1.2545,-1.2537,-1.2546,-1.2548,-1.2527,-1.2522,-1.2502,-1.2514,-1.2558,-1.2489,-1.2488,-1.2503,-1.2596,-1.2614,-1.2623,-1.2542,-1.2543,-1.2544,-1.2598,0,-1.2633,-1.265,-1.2624,-1.2647,-1.2652,-1.2616,-1.2626,-1.2615,-1.2601,-1.2603,-1.2586,-1.2589,-1.256,-1.2557,-1.2567,-1.2551,-1.2577,-1.2546,-1.2551,-1.2551,-1.2556,-1.2632,-1.265,-1.2702,-1.2604,-1.2605,-1.2606,0,-1.2696,-1.2691,-1.2715,-1.2695,-1.2696,-1.2705,-1.2699,-1.2701,-1.2689,-1.2678,-1.2673,-1.2649,-1.2659,-1.2628,-1.2642,-1.2622,-1.2623,-1.2615,-1.2616,-1.2616,-1.2582,-1.2635,-1.2717,-1.2725,-1.2616,-1.2615,-1.2614,0,-1.2759,-1.2758,-1.2772,-1.2768,-1.2745,-1.2753,-1.2744,-1.273,-1.2729,-1.2724,-1.2724,-1.272,-1.2718,-1.2716,-1.2692,-1.2671,-1.2709,-1.2676,-1.27,-1.2701,-1.2711,-1.271,-1.2795,-1.271,-1.2709,-1.2709,-1.2709,0,-1.2821,-1.2837,-1.2801,-1.281,-1.2827,-1.2797,-1.2815,-1.2802,-1.2791,-1.2797,-1.2765,-1.2772,-1.2739,-1.2743,-1.2724,-1.2739,-1.2738,-1.273,-1.2725,-1.2733,-1.2734,-1.2733,-1.2729,-1.2711,-1.2711,-1.271,-1.271,0,-1.2895,-1.2871,-1.2884,-1.2861,-1.2856,-1.287,-1.2851,-1.2859,-1.2842,-1.285,-1.2851,-1.2825,-1.2827,-1.2802,-1.28,-1.2787,-1.2812,-1.28,-1.2816,-1.2812,-1.2839,-1.2837,-1.2927,-1.2937,-1.2844,-1.2845,-1.2846,0,-1.2936,-1.2947,-1.2926,-1.2928,-1.2921,-1.2924,-1.2923,-1.2894,-1.2894,-1.2882,-1.2891,-1.2891,-1.2889,-1.2895,-1.2876,-1.2874,-1.2863,-1.2894,-1.2863,-1.2871,-1.2865,-1.2865,-1.2866,-1.2902,-1.2903,-1.2904,-1.2904,0,-1.3012,-1.3,-1.2999,-1.2995,-1.2995,-1.299,-1.2984,-1.2987,-1.2956,-1.2958,-1.296,-1.2959,-1.2956,-1.2957,-1.2952,-1.2943,-1.2919,-1.2915,-1.292,-1.2929,-1.2939,-1.2935,-1.2835,-1.2913,-1.2912,-1.2911,-1.2911,-1.291,-1.3071,-1.308,-1.3067,-1.3068,-1.306,-1.3054,-1.3061,-1.3045,-1.3046,-1.3042,-1.3025,-1.303,-1.3019,-1.3009,-1.3002,-1.3006,-1.2991,-1.2999,-1.3002,-1.3004,-1.301,-1.2937,-1.3005,-1.3005,-1.3005,-1.3004,-1.3004,0,-1.3146,-1.3136,-1.3137,-1.3129,-1.313,-1.3107,-1.3099,-1.3101,-1.3106,-1.3097,-1.3096,-1.3099,-1.31,-1.3081,-1.3079,-1.3086,-1.3076,-1.3087,-1.3087,-1.3085,-1.3023,-1.3018,-1.3096,-1.3096,-1.3096,-1.3096,-1.3096,-1.3096,-1.3186,-1.32,-1.3186,-1.3197,-1.3186,-1.3191,-1.3189,-1.3184,-1.3177,-1.3181,-1.3181,-1.3169,-1.3157,-1.3154,-1.3154,-1.3148,-1.3149,-1.3165,-1.3156,-1.3098,-1.3089,-1.3081,-1.3077,-1.3165,-1.3165,-1.3218,-1.3219,-1.3219]},{"header":{"parameterUnit":"m.s-1","parameterCategory":1,"la1":30.2991,"la2":30.254,"lo1":-89.0895,"lo2":-89.0444,"dy":0.0017,"dx":0.0017,"nx":28,"ny":28,"refTime":"2024-03-16T03:00:00:Z","depth":0,"parameterNumber":3,"parameterNumberName":"V-component_of_WINDS"},"data":[0,0,0,0,0,0,0,0,0,0,0,0,0,0,0,0,0,0,0,0,0,0,0,0,0,0,0,0,0,0,0,0,0,0,0,0,0,0,0,0,0,0,0,0,0,0,0,0,0,0,0,0,0,0,0,0,0,0,-1.1409,-1.1409,0,-1.1416,-1.1416,-1.1416,-1.1415,-1.1415,-1.1415,-1.1415,-1.142,-1.142,-1.1421,0,0,0,0,0,0,0,0,0,0,0,0,0,-1.1394,-1.1394,-1.1409,-1.1409,-1.1409,-1.1416,-1.1416,-1.1416,-1.1415,-1.1415,-1.1415,-1.1415,-1.142,-1.142,-1.1421,0,0,0,0,0,0,0,0,0,0,0,0,0,-1.1401,-1.1394,-1.1409,-1.141,-1.141,-1.1416,-1.1416,-1.1416,-1.1415,-1.1415,-1.1415,-1.1415,-1.142,-1.142,-1.1421,-1.1426,0,0,-1.1422,-1.1422,0,0,0,0,0,0,0,0,-1.14,-1.1401,-1.141,-1.141,-1.141,-1.1415,-1.1413,-1.1419,-1.1415,-1.1413,-1.1415,-1.1415,-1.1418,-1.1419,-1.142,-1.1426,-1.1427,-1.1422,-1.1422,-1.1422,-1.1422,0,0,0,0,0,0,0,-1.14,-1.1401,-1.1412,-1.141,-1.141,-1.1409,-1.141,-1.1414,-1.1416,-1.1413,-1.1413,-1.1414,-1.1418,-1.142,-1.142,-1.1427,-1.1422,-1.1422,-1.1422,-1.1422,-1.1438,-1.1438,0,0,0,0,0,0,-1.1399,-1.1401,-1.1412,-1.1412,-1.1405,-1.141,-1.141,-1.1413,-1.1416,-1.1417,-1.1414,-1.1414,-1.1419,-1.142,-1.1421,-1.1428,-1.1422,-1.1423,-1.1423,-1.1438,-1.1438,-1.1438,0,0,0,0,0,0,-1.1399,-1.14,-1.1411,-1.1406,-1.1408,-1.141,-1.1413,-1.1413,-1.1415,-1.1417,-1.1417,-1.1416,-1.1419,-1.142,-1.1425,-1.1428,-1.1423,-1.1423,-1.1438,-1.1438,-1.1438,-1.1442,0,0,0,0,0,0,-1.1399,-1.14,-1.1403,-1.1406,-1.1408,-1.1416,-1.1413,-1.1414,-1.1416,-1.1416,-1.1419,-1.1419,-1.1419,-1.1424,-1.1425,-1.1428,-1.1423,-1.1437,-1.1438,-1.1438,-1.1442,-1.1442,-1.1443,0,0,0,0,0,-1.1398,-1.1403,-1.1403,-1.1404,-1.1411,-1.1416,-1.1417,-1.1418,-1.1416,-1.1418,-1.142,-1.1419,-1.1427,-1.1425,-1.1426,-1.1429,-1.1437,-1.1438,-1.1438,-1.1441,-1.1442,-1.1443,0,0,0,0,0,0,-1.1399,-1.1403,-1.1403,-1.141,-1.1413,-1.1416,-1.1419,-1.1419,-1.1422,-1.1421,-1.1422,-1.1422,-1.1428,-1.1429,-1.1426,-1.1435,-1.1432,-1.1433,-1.1434,-1.1435,-1.1436,-1.1435,-1.1424,0,0,0,0,0,-1.14,-1.1404,-1.1408,-1.1413,-1.1414,-1.1416,-1.1419,-1.1419,-1.1422,-1.1423,-1.1425,-1.1427,-1.1431,-1.1433,-1.1436,-1.1442,-1.1442,-1.1444,-1.1445,-1.1445,-1.1446,-1.145,-1.1451,-1.144,-1.144,-1.144,0,0,-1.1401,-1.1405,-1.1407,-1.1413,-1.1415,-1.142,-1.1417,-1.1422,-1.1425,-1.1423,-1.1429,-1.143,-1.1433,-1.1438,-1.1441,-1.1439,-1.1449,-1.1446,-1.1446,-1.1447,-1.145,-1.1451,-1.1452,-1.144,-1.144,-1.144,0,0,-1.1407,-1.141,-1.1415,-1.1417,-1.1421,-1.1423,-1.1424,-1.1428,-1.1429,-1.1434,-1.1433,-1.1437,-1.1442,-1.1444,-1.1446,-1.1453,-1.1453,-1.1454,-1.1458,-1.1462,-1.1463,-1.1463,-1.1466,-1.1467,-1.1455,-1.1455,-1.1455,0,-1.1409,-1.1416,-1.1417,-1.1422,-1.1425,-1.1424,-1.1429,-1.1432,-1.1436,-1.1438,-1.1436,-1.1444,-1.1445,-1.1452,-1.1454,-1.1455,-1.1456,-1.1454,-1.1462,-1.1463,-1.1464,-1.1467,-1.1468,-1.1455,-1.1455,-1.1455,-1.1455,0,-1.1418,-1.1422,-1.1426,-1.1431,-1.1434,-1.1439,-1.1441,-1.1443,-1.1444,-1.1445,-1.1451,-1.1453,-1.1457,-1.1458,-1.1458,-1.1465,-1.1464,-1.1462,-1.146,-1.1465,-1.1468,-1.1469,-1.1455,-1.1455,-1.1455,-1.1455,0,0,-1.1423,-1.143,-1.1432,-1.1434,-1.1439,-1.1443,-1.1447,-1.1452,-1.1454,-1.1457,-1.1461,-1.1466,-1.1465,-1.1467,-1.1468,-1.1471,-1.1477,-1.1469,-1.1469,-1.1471,-1.1485,-1.1486,-1.1488,-1.1476,-1.1476,-1.1477,-1.1485,0,-1.143,-1.1439,-1.1441,-1.1449,-1.1454,-1.1454,-1.1458,-1.1461,-1.1463,-1.1466,-1.1468,-1.1472,-1.147,-1.1471,-1.1474,-1.1476,-1.148,-1.1475,-1.148,-1.148,-1.148,-1.1489,-1.1491,-1.1498,-1.1486,-1.1486,-1.1486,0,-1.1439,-1.1443,-1.1452,-1.1457,-1.1459,-1.1463,-1.1467,-1.1471,-1.1474,-1.1475,-1.1478,-1.1478,-1.1483,-1.148,-1.1486,-1.1483,-1.1485,-1.1486,-1.1486,-1.1487,-1.1484,-1.1491,-1.1501,-1.1502,-1.1488,-1.1488,-1.1487,0,-1.1443,-1.1451,-1.1458,-1.146,-1.1465,-1.1468,-1.1471,-1.1474,-1.1477,-1.1481,-1.1483,-1.1486,-1.1489,-1.1492,-1.1493,-1.149,-1.1499,-1.1496,-1.15,-1.15,-1.1503,-1.1503,-1.1514,-1.1503,-1.1503,-1.1503,-1.1503,0,-1.145,-1.1456,-1.146,-1.1464,-1.147,-1.1472,-1.1478,-1.148,-1.1483,-1.1487,-1.1487,-1.1491,-1.1492,-1.1496,-1.1496,-1.1502,-1.1503,-1.1504,-1.1504,-1.1504,-1.1504,-1.1506,-1.1506,-1.1503,-1.1503,-1.1503,-1.1503,0,-1.1456,-1.1459,-1.1466,-1.1471,-1.1473,-1.1477,-1.1481,-1.1485,-1.1487,-1.1492,-1.1494,-1.1496,-1.1501,-1.1502,-1.1507,-1.1508,-1.1515,-1.1514,-1.1514,-1.1514,-1.1519,-1.1518,-1.1531,-1.1534,-1.1521,-1.1521,-1.1521,0,-1.1461,-1.1465,-1.1471,-1.1475,-1.1477,-1.1482,-1.1486,-1.1488,-1.1491,-1.1496,-1.1499,-1.1504,-1.1508,-1.1515,-1.1517,-1.1521,-1.1521,-1.1526,-1.1522,-1.1522,-1.1522,-1.1522,-1.1523,-1.1526,-1.1527,-1.1527,-1.1527,0,-1.1469,-1.1471,-1.1476,-1.1482,-1.1486,-1.149,-1.1494,-1.1497,-1.1499,-1.1503,-1.1508,-1.1512,-1.1518,-1.1523,-1.1527,-1.1529,-1.1528,-1.1528,-1.1529,-1.153,-1.153,-1.1531,-1.1517,-1.1528,-1.1528,-1.1528,-1.1528,-1.1527,-1.1475,-1.1479,-1.1484,-1.149,-1.1494,-1.1498,-1.1502,-1.1505,-1.151,-1.1516,-1.1516,-1.1522,-1.1526,-1.1532,-1.1534,-1.1538,-1.1537,-1.1539,-1.1539,-1.154,-1.1541,-1.1529,-1.1539,-1.1539,-1.1539,-1.1539,-1.1539,0,-1.1484,-1.1487,-1.1493,-1.1499,-1.1504,-1.1504,-1.1509,-1.1513,-1.1518,-1.1522,-1.1526,-1.1533,-1.1538,-1.154,-1.1545,-1.1548,-1.1548,-1.1549,-1.155,-1.155,-1.1541,-1.154,-1.155,-1.155,-1.155,-1.155,-1.155,-1.155,-1.1489,-1.1496,-1.1499,-1.1508,-1.1511,-1.1518,-1.1521,-1.1525,-1.1528,-1.1536,-1.154,-1.1542,-1.1546,-1.1551,-1.1555,-1.1556,-1.1558,-1.156,-1.156,-1.1552,-1.1551,-1.155,-1.1548,-1.156,-1.156,-1.1569,-1.1569,-1.1569]}]]